Weather History for Grand Rapids, MN

Change the Weather History Date:

Thursday, February 27, 2014

  Actual Average Record
Temperature  
Mean Temperature -14 °F -  
Max Temperature -2 °F 31 °F 56 °F (1932)
Min Temperature -25 °F 9 °F -36 °F (1919)
Degree Days  
Heating Degree Days 78    
Moisture  
Dew Point -28 °F    
Average Humidity 51    
Maximum Humidity 83    
Minimum Humidity 29    
Precipitation  
Precipitation 0.00 in - - ()
Sea Level Pressure  
Sea Level Pressure 30.00 in    
Wind  
Wind Speed 10 mph (WNW)    
Max Wind Speed 18 mph    
Max Gust Speed 22 mph    
Visibility 10 miles    
Events      
Averages and records for this station are not official NWS values.
T = Trace of Precipitation, MM = Missing Value Source: NWS Daily Summary

Daily Weather History Graph

Daily Weather History Graph

Search for Another Location

Airport:

Trip Planner

Search our weather history database for the weather conditions in past years. The results will help you decide how hot, cold, wet, or windy it might be!

Date:

Astronomy

Feb. 27, 2014 Rise Set
Actual Time 6:57 AM CST 5:56 PM CST
Civil Twilight 6:27 AM CST 6:27 PM CST
Nautical Twilight 5:51 AM CST 7:02 PM CST
Astronomical Twilight 5:16 AM CST 7:38 PM CST
Moon 5:35 AM CST (2/27) 4:19 PM CST (2/27)
Length of Visible Light 12h 00m
Length of Day
10h 58m
Waning Crescent, 4% of the Moon is Illuminated
Feb 27
Waning Crescent
Mar 1
New
Mar 8
First Quarter
Mar 16
Full
Mar 23
Last Quarter

Hourly Weather History & Observations

Time (CST) Temp. Windchill Dew Point Humidity Pressure Visibility Wind Dir Wind Speed Gust Speed Precip Events Conditions
12:15 AM -16.6 °F -42.9 °F -23.8 °F 70% 29.88 in 10.0 mi NW 18.4 mph 21.9 mph N/A   Clear
12:35 AM -16.6 °F -40.6 °F -25.6 °F 64% 29.89 in 10.0 mi NW 15.0 mph - N/A   Clear
12:55 AM -16.6 °F -38.9 °F -25.6 °F 64% 29.90 in 10.0 mi NW 12.7 mph 21.9 mph N/A   Clear
1:15 AM -16.6 °F -39.8 °F -25.6 °F 64% 29.91 in 10.0 mi NW 13.8 mph - N/A   Clear
1:35 AM -18.4 °F -42.9 °F -25.6 °F 70% 29.92 in 10.0 mi NW 15.0 mph - N/A   Clear
1:55 AM -18.4 °F -42.1 °F -25.6 °F 70% 29.93 in 10.0 mi NW 13.8 mph 19.6 mph N/A   Clear
2:15 AM -18.4 °F -43.7 °F -25.6 °F 70% 29.93 in 10.0 mi NW 16.1 mph 20.7 mph N/A   Clear
2:35 AM -18.4 °F -43.7 °F -27.4 °F 63% 29.93 in 10.0 mi NW 16.1 mph - N/A   Clear
2:55 AM -20.2 °F -44.4 °F -27.4 °F 69% 29.94 in 10.0 mi NW 13.8 mph - N/A   Clear
3:15 AM -20.2 °F -43.4 °F -25.6 °F 76% 29.95 in 10.0 mi NW 12.7 mph 19.6 mph N/A   Clear
3:35 AM -20.2 °F -44.4 °F -27.4 °F 69% 29.96 in 10.0 mi NW 13.8 mph - N/A   Clear
3:55 AM -20.2 °F -43.4 °F -27.4 °F 69% 29.97 in 10.0 mi NW 12.7 mph - N/A   Clear
4:15 AM -20.2 °F -44.4 °F -27.4 °F 69% 29.98 in 10.0 mi NW 13.8 mph - N/A   Clear
4:35 AM -22.0 °F -44.7 °F -27.4 °F 76% 29.99 in 10.0 mi NW 11.5 mph - N/A   Clear
4:55 AM -22.0 °F -44.7 °F -27.4 °F 76% 30.00 in 10.0 mi NW 11.5 mph - N/A   Clear
5:15 AM -23.8 °F -48.0 °F -29.2 °F 76% 30.00 in 10.0 mi NW 12.7 mph - N/A   Clear
5:35 AM -23.8 °F -45.8 °F - N/A% 30.00 in 10.0 mi NNW 10.4 mph - N/A   Clear
5:55 AM -25.6 °F -45.4 °F - N/A% 30.01 in 10.0 mi NNW 8.1 mph - N/A   Clear
6:15 AM -23.8 °F -43.2 °F - N/A% 30.02 in 10.0 mi WNW 8.1 mph - N/A   Clear
6:35 AM -23.8 °F -41.6 °F -27.4 °F 83% 30.02 in 10.0 mi WNW 6.9 mph - N/A   Clear
6:55 AM -23.8 °F -43.2 °F - N/A% 30.03 in 10.0 mi NW 8.1 mph - N/A   Clear
7:15 AM -25.6 °F -43.8 °F - N/A% 30.04 in 10.0 mi WNW 6.9 mph - N/A   Clear
7:35 AM -23.8 °F -41.6 °F - N/A% 30.04 in 10.0 mi WNW 6.9 mph - N/A   Clear
7:55 AM -23.8 °F -43.2 °F - N/A% 30.05 in 10.0 mi NW 8.1 mph - N/A   Clear
8:15 AM -23.8 °F -41.6 °F - N/A% 30.05 in 10.0 mi NW 6.9 mph - N/A   Clear
8:35 AM -23.8 °F -44.5 °F - N/A% 30.05 in 10.0 mi NW 9.2 mph - N/A   Clear
8:55 AM -22.0 °F -43.6 °F - N/A% 30.06 in 10.0 mi NW 10.4 mph - N/A   Clear
9:15 AM -22.0 °F -41.0 °F - N/A% 30.07 in 10.0 mi NW 8.1 mph - N/A   Clear
9:35 AM -20.2 °F -40.1 °F - N/A% 30.07 in 10.0 mi WNW 9.2 mph - N/A   Clear
9:55 AM -20.2 °F -35.5 °F - N/A% 30.07 in 10.0 mi NW 5.8 mph - N/A   Clear
10:15 AM -18.4 °F -35.1 °F - N/A% 30.07 in 9.0 mi West 6.9 mph - N/A   Partly Cloudy
10:35 AM -18.4 °F -36.6 °F - N/A% 30.08 in 2.5 mi WNW 8.1 mph - N/A   Scattered Clouds
10:55 AM -18.4 °F -37.9 °F -29.2 °F 58% 30.07 in 10.0 mi WNW 9.2 mph - N/A   Scattered Clouds
11:15 AM -16.6 °F -31.3 °F -29.2 °F 53% 30.07 in 10.0 mi WNW 5.8 mph - N/A   Clear
11:35 AM -14.8 °F -24.8 °F -29.2 °F 48% 30.07 in 10.0 mi WNW 3.5 mph - N/A   Clear
11:55 AM -14.8 °F - -27.4 °F 53% 30.07 in 10.0 mi Calm Calm - N/A   Clear
12:15 PM -13.0 °F -27.0 °F -29.2 °F 44% 30.07 in 10.0 mi WNW 5.8 mph - N/A   Clear
12:35 PM -11.2 °F -23.0 °F -29.2 °F 41% 30.06 in 10.0 mi NNW 4.6 mph - N/A   Clear
12:55 PM -11.2 °F -20.6 °F -27.4 °F 45% 30.05 in 10.0 mi WNW 3.5 mph - N/A   Clear
1:15 PM -9.4 °F -22.7 °F -27.4 °F 41% 30.05 in 10.0 mi NW 5.8 mph - N/A   Clear
1:35 PM -9.4 °F -20.9 °F -27.4 °F 41% 30.05 in 10.0 mi NW 4.6 mph - N/A   Clear
1:55 PM -7.6 °F -20.6 °F -27.4 °F 38% 30.04 in 10.0 mi NW 5.8 mph - N/A   Clear
2:15 PM -7.6 °F -16.5 °F -27.4 °F 38% 30.03 in 10.0 mi NW 3.5 mph - N/A   Clear
2:35 PM -5.8 °F -16.7 °F -27.4 °F 35% 30.03 in 10.0 mi NNW 4.6 mph - N/A   Clear
2:55 PM -5.8 °F -18.4 °F -27.4 °F 35% 30.02 in 10.0 mi WNW 5.8 mph - N/A   Clear
3:15 PM -5.8 °F -14.5 °F -27.4 °F 35% 30.02 in 10.0 mi NW 3.5 mph - N/A   Clear
3:35 PM -2.2 °F -12.5 °F -25.6 °F 32% 30.01 in 10.0 mi NW 4.6 mph - N/A   Clear
3:55 PM -4.0 °F -14.6 °F -27.4 °F 32% 30.00 in 10.0 mi North 4.6 mph - N/A   Clear
4:15 PM -2.2 °F - -27.4 °F 29% 30.00 in 10.0 mi Calm Calm - N/A   Clear
4:35 PM -2.2 °F -10.4 °F -27.4 °F 29% 29.99 in 10.0 mi West 3.5 mph - N/A   Clear
4:55 PM -2.2 °F - -27.4 °F 29% 29.99 in 10.0 mi Calm Calm - N/A   Clear
5:15 PM -2.2 °F - -27.4 °F 29% 29.98 in 10.0 mi Calm Calm - N/A   Clear
5:35 PM -2.2 °F - -25.6 °F 32% 29.98 in 10.0 mi Calm Calm - N/A   Clear
5:55 PM -5.8 °F - -29.2 °F 32% 29.98 in 10.0 mi Calm Calm - N/A   Clear
6:15 PM -7.6 °F - - N/A% 29.98 in 10.0 mi Calm Calm - N/A   Clear
6:35 PM -9.4 °F - -31.0 °F 34% 29.98 in 10.0 mi Calm Calm - N/A   Clear
6:55 PM -11.2 °F - - N/A% 29.98 in 10.0 mi Calm Calm - N/A   Clear
7:15 PM -13.0 °F -22.7 °F - N/A% 29.97 in 10.0 mi South 3.5 mph - N/A   Clear
7:35 PM -16.6 °F -29.3 °F - N/A% 29.97 in 10.0 mi South 4.6 mph - N/A   Clear
7:55 PM -14.8 °F -29.1 °F -29.2 °F 48% 29.96 in 10.0 mi South 5.8 mph - N/A   Clear
8:15 PM -14.8 °F -29.1 °F -29.2 °F 48% 29.96 in 10.0 mi South 5.8 mph - N/A   Clear
8:35 PM -11.2 °F -26.4 °F -27.4 °F 45% 29.96 in 10.0 mi South 6.9 mph - N/A   Clear
8:55 PM -11.2 °F -26.4 °F -31.0 °F 37% 29.96 in 10.0 mi South 6.9 mph - N/A   Clear
9:15 PM -14.8 °F -29.1 °F - N/A% 29.96 in 10.0 mi South 5.8 mph - N/A   Clear
9:35 PM -11.2 °F -26.4 °F -29.2 °F 41% 29.95 in 10.0 mi South 6.9 mph - N/A   Clear
9:55 PM -14.8 °F -30.8 °F -27.4 °F 53% 29.95 in 10.0 mi South 6.9 mph - N/A   Clear
10:15 PM -13.0 °F -28.6 °F - N/A% 29.95 in 10.0 mi South 6.9 mph - N/A   Clear
10:35 PM -13.0 °F -30.0 °F -29.2 °F 44% 29.95 in 10.0 mi South 8.1 mph - N/A   Clear
10:55 PM -11.2 °F -27.8 °F -27.4 °F 45% 29.94 in 10.0 mi South 8.1 mph - N/A   Clear
11:15 PM -11.2 °F -26.4 °F -27.4 °F 45% 29.94 in 10.0 mi SSE 6.9 mph - N/A   Clear
11:35 PM -11.2 °F -24.8 °F -27.4 °F 45% 29.93 in 10.0 mi SSE 5.8 mph - N/A   Clear
11:55 PM -11.2 °F -24.8 °F -27.4 °F 45% 29.94 in 10.0 mi SSE 5.8 mph - N/A   Clear